Weather History for KOMA - September, 2012

Change the Weather History Date:

Friday, September 21, 2012

  Actual Average Record
Temperature  
Mean Temperature 62 °F 64 °F  
Max Temperature 76 °F 76 °F 98 °F (2005)
Min Temperature 47 °F 51 °F 34 °F (1983)
Degree Days  
Heating Degree Days 3 4  
Month to date heating degree days 32 44  
Since 1 July heating degree days 38 52  
Cooling Degree Days 0 3  
Month to date cooling degree days 103 100  
Year to date cooling degree days 1645 1080  
Growing Degree Days 14 (Base 50)    
Moisture  
Dew Point 41 °F    
Average Humidity 49    
Maximum Humidity 77    
Minimum Humidity 21    
Precipitation  
Precipitation 0.00 in 0.09 in 1.72 in (1932)
Month to date precipitation 1.59 1.96  
Year to date precipitation 18.31 25.07  
Snow  
Snow 0.00 in 0.00 in - ()
Month to date snowfall 0.0 0.0  
Since 1 July snowfall 0.0 0.0  
Snow Depth 0.00 in    
Sea Level Pressure  
Sea Level Pressure 29.87 in    
Wind  
Wind Speed 9 mph (NW)    
Max Wind Speed 28 mph    
Max Gust Speed 37 mph    
Visibility 10 miles    
Events      
T = Trace of Precipitation, MM = Missing Value Source: NWS Daily Summary

Daily Weather History Graph

Daily Weather History Graph

Search for Another Location

Airport or City:

Trip Planner

Search our weather history database for the weather conditions in past years. The results will help you decide how hot, cold, wet, or windy it might be!

Date:

Astronomy

Sep. 21, 2012 Rise Set
Actual Time 7:10 AM CDT 7:21 PM CDT
Civil Twilight 6:42 AM CDT 7:49 PM CDT
Nautical Twilight 6:10 AM CDT 8:21 PM CDT
Astronomical Twilight 5:37 AM CDT 8:54 PM CDT
Moon 1:36 PM CDT (9/21) 11:19 PM CDT (9/21)
Length of Visible Light 13h 06m
Length of Day
12h 11m
Waxing Crescent, 37% of the Moon is Illuminated
Sep 21
Waxing Crescent
Sep 22
First Quarter
Sep 29
Full
Oct 8
Last Quarter
Oct 15
New

Hourly Weather History & Observations

Time (CDT) Temp. Dew Point Humidity Pressure Visibility Wind Dir Wind Speed Gust Speed Precip Events Conditions
12:52 AM 57.9 °F 50.0 °F 75% 29.92 in 10.0 mi Calm Calm - N/A   Overcast
1:52 AM 57.9 °F 50.0 °F 75% 29.90 in 10.0 mi SSE 6.9 mph - N/A   Overcast
2:52 AM 57.0 °F 48.0 °F 72% 29.88 in 10.0 mi South 4.6 mph - N/A   Mostly Cloudy
3:52 AM 57.0 °F 46.9 °F 69% 29.86 in 10.0 mi SSE 8.1 mph - N/A   Scattered Clouds
4:52 AM 55.0 °F 45.0 °F 69% 29.84 in 10.0 mi SSE 6.9 mph - N/A   Scattered Clouds
5:52 AM 57.9 °F 42.1 °F 56% 29.82 in 10.0 mi South 6.9 mph - N/A   Scattered Clouds
6:52 AM 57.9 °F 42.1 °F 56% 29.81 in 10.0 mi SSW 6.9 mph - N/A   Scattered Clouds
7:52 AM 57.9 °F 41.0 °F 53% 29.83 in 10.0 mi Calm Calm - N/A   Scattered Clouds
8:52 AM 61.0 °F 42.1 °F 50% 29.83 in 10.0 mi NW 11.5 mph - N/A   Scattered Clouds
9:52 AM 64.0 °F 42.1 °F 45% 29.83 in 10.0 mi NW 8.1 mph - N/A   Scattered Clouds
10:52 AM 70.0 °F 41.0 °F 35% 29.84 in 10.0 mi NW 15.0 mph - N/A   Scattered Clouds
11:52 AM 71.1 °F 39.0 °F 31% 29.85 in 10.0 mi NW 17.3 mph 28.8 mph N/A   Scattered Clouds
12:52 PM 73.0 °F 39.0 °F 29% 29.85 in 10.0 mi NW 21.9 mph 29.9 mph N/A   Scattered Clouds
1:52 PM 75.0 °F 36.0 °F 24% 29.85 in 10.0 mi NNW 19.6 mph 32.2 mph N/A   Scattered Clouds
2:52 PM 73.9 °F 32.0 °F 21% 29.86 in 10.0 mi NNW 24.2 mph 32.2 mph N/A   Scattered Clouds
3:52 PM 75.0 °F 34.0 °F 22% 29.86 in 10.0 mi NW 18.4 mph 26.5 mph N/A   Scattered Clouds
4:52 PM 75.0 °F 33.1 °F 22% 29.87 in 10.0 mi NW 15.0 mph 25.3 mph N/A   Partly Cloudy
5:52 PM 73.0 °F 32.0 °F 22% 29.87 in 10.0 mi NW 12.7 mph 25.3 mph N/A   Clear
6:52 PM 69.1 °F 34.0 °F 27% 29.89 in 10.0 mi NNW 9.2 mph - N/A   Clear
7:52 PM 63.0 °F 37.9 °F 40% 29.90 in 10.0 mi NNW 3.5 mph - N/A   Clear
8:52 PM 59.0 °F 41.0 °F 51% 29.92 in 10.0 mi Calm Calm - N/A   Clear
9:52 PM 57.9 °F 45.0 °F 62% 29.92 in 10.0 mi Calm Calm - N/A   Clear
10:52 PM 57.0 °F 39.9 °F 53% 29.92 in 10.0 mi Calm Calm - N/A   Clear
11:52 PM 54.0 °F 41.0 °F 62% 29.92 in 10.0 mi ESE 3.5 mph - N/A   Clear